Location: Recife
(8.0585°S, 34.8848°W)
Time: 10:44:17
(UTC-03:00)

Vanguard 2 Rocket - Pass Details

Date: 17 April 2026
Orbit: 553 x 3286 km, 32.9° (Epoch: 8 May)

Event Time Altitude Azimuth Distance (km) Brightness Sun altitude
Rises 14:02:55 0° 238° (WSW) 7,001 11.8 45.1°
Reaches altitude 10° 14:07:23 10° 239° (WSW) 6,128 11.6 44.1°
Maximum altitude 14:27:45 78° 322° (NW) 3,143 10.5 39.5°
Drops below altitude 10° 14:43:36 10° 48° (NE) 4,940 10.5 35.8°
Sets 14:46:47 0° 50° (NE) 5,646 10.7 35.0°
